Location: Beaver Meadows
(40.3729°N, 105.6140°W)
Time: 10:33:45
(UTC-06:00)

Iridium 67 - Visible Passes

Search period start: 02 July 2015 00:00
Search period end: 12 July 2015 00:00
Orbit: 776 x 779 km, 86.4° (Epoch: 02 July)

Date Brightness Start Highest point End Pass type
(mag) Time Alt. Az. Time Alt. Az. Time Alt. Az.
02 Jul 6.1 04:39:05 10° N 04:44:15 61° E 04:49:24 10° SSE visible
03 Jul 7.2 04:05:55 10° NNE 04:10:34 33° E 04:15:16 10° SE visible
04 Jul 8.1 03:33:15 10° NNE 03:36:44 18° ENE 03:40:23 10° ESE visible
05 Jul 5.6 04:39:09 10° N 04:44:23 89° E 04:49:36 10° S visible
06 Jul 6.5 04:05:46 10° N 04:10:47 48° E 04:15:49 10° SSE visible
07 Jul 7.5 03:32:46 10° NNE 03:37:03 26° ENE 03:41:26 10° SE visible
08 Jul 8.1 03:00:28 10° NE 03:03:08 14° ENE 03:06:04 10° ESE visible
08 Jul 5.6 04:39:19 10° N 04:44:28 63° W 04:49:35 10° S visible
09 Jul 5.8 04:05:45 10° N 04:10:58 70° E 04:16:09 10° S visible
10 Jul 6.8 03:32:30 10° NNE 03:37:19 37° E 03:42:09 10° SSE visible
11 Jul 7.7 02:59:42 10° NNE 03:03:30 21° ENE 03:07:27 10° SE visible
11 Jul 6.0 04:39:35 10° NNW 04:44:31 43° W 04:49:23 10° SSW visible
